| time (UTC) | temp F | wind direction | speed MPH | gust MPH | rain 1hr in | rain 24hr in | rain mn in | humidity % | barometer mb |
| 20260510223056 | 69 | 160 | 2.0 | 8.0 | 0.00 | 0.00 | 0.00 | 54 | 1019.3 |
| 20260510222556 | 68 | 15 | 2.0 | 7.0 | 0.00 | 0.00 | 0.00 | 55 | 1019.4 |
| 20260510222057 | 67 | 5 | 2.0 | 7.0 | 0.00 | 0.00 | 0.00 | 54 | 1019.4 |
| 20260510221600 | 68 | 352 | 1.0 | 6.0 | 0.00 | 0.00 | 0.00 | 56 | 1019.4 |
| 20260510221053 | 67 | 65 | 2.0 | 7.0 | 0.00 | 0.00 | 0.00 | 58 | 1019.3 |
| 20260510220556 | 68 | 360 | 1.0 | 7.0 | 0.00 | 0.00 | 0.00 | 55 | 1019.3 |
| 20260510220055 | 68 | 296 | 2.0 | 5.0 | 0.00 | 0.00 | 0.00 | 56 | 1019.3 |
| 20260510215555 | 67 | 336 | 0.0 | 4.0 | 0.00 | 0.00 | 0.00 | 60 | 1019.3 |
| 20260510215057 | 66 | 5 | 1.0 | 10.0 | 0.00 | 0.00 | 0.00 | 61 | 1019.3 |
| 20260510214556 | 67 | 0 | 3.0 | 10.0 | 0.00 | 0.00 | 0.00 | 59 | 1019.4 |
| 20260510214057 | 67 | 9 | 1.0 | 8.0 | 0.00 | 0.00 | 0.00 | 59 | 1019.4 |
| 20260510213557 | 67 | 24 | 4.0 | 8.0 | 0.00 | 0.00 | 0.00 | 59 | 1019.3 |
| 20260510213109 | 67 | 5 | 1.0 | 5.0 | 0.00 | 0.00 | 0.00 | 59 | 1019.4 |
| 20260510212556 | 67 | 0 | 0.0 | 4.0 | 0.00 | 0.00 | 0.00 | 57 | 1019.4 |
| 20260510212057 | 66 | 190 | 1.0 | 3.0 | 0.00 | 0.00 | 0.00 | 57 | 1019.4 |
| 20260510211556 | 66 | 179 | 0.0 | 4.0 | 0.00 | 0.00 | 0.00 | 59 | 1019.4 |
| 20260510211054 | 66 | 360 | 1.0 | 5.0 | 0.00 | 0.00 | 0.00 | 60 | 1019.3 |
| 20260510210553 | 65 | 40 | 1.0 | 7.0 | 0.00 | 0.00 | 0.00 | 60 | 1019.2 |
| 20260510210100 | 66 | 24 | 1.0 | 7.0 | 0.00 | 0.00 | 0.00 | 60 | 1019.3 |
| 20260510205556 | 66 | 56 | 2.0 | 5.0 | 0.00 | 0.00 | 0.00 | 60 | 1019.2 |
| 20260510205055 | 66 | 9 | 2.0 | 6.0 | 0.00 | 0.00 | 0.00 | 61 | 1019.2 |
| 20260510204557 | 66 | 71 | 2.0 | 6.0 | 0.00 | 0.00 | 0.00 | 61 | 1019.3 |
| 20260510204057 | 66 | 333 | 1.0 | 4.0 | 0.00 | 0.00 | 0.00 | 62 | 1019.4 |
| 20260510203557 | 66 | 5 | 0.0 | 3.0 | 0.00 | 0.00 | 0.00 | 62 | 1019.4 |
| 20260510203056 | 66 | 66 | 1.0 | 7.0 | 0.00 | 0.00 | 0.00 | 59 | 1019.2 |
| 20260510202600 | 64 | 360 | 3.0 | 7.0 | 0.00 | 0.00 | 0.00 | 61 | 1019.3 |
| 20260510202056 | 65 | 227 | 3.0 | 7.0 | 0.00 | 0.00 | 0.00 | 62 | 1019.2 |
| 20260510201557 | 65 | 252 | 1.0 | 7.0 | 0.00 | 0.00 | 0.00 | 64 | 1019.1 |
| 20260510201057 | 66 | 67 | 3.0 | 7.0 | 0.00 | 0.00 | 0.00 | 62 | 1019.0 |
| 20260510200557 | 67 | 166 | 2.0 | 7.0 | 0.00 | 0.00 | 0.00 | 63 | 1018.9 |
| 20260510200056 | 64 | 66 | 2.0 | 6.0 | 0.00 | 0.00 | 0.00 | 66 | 1019.0 |
| 20260510195557 | 64 | 115 | 2.0 | 5.0 | 0.00 | 0.00 | 0.00 | 67 | 1019.2 |
| 20260510195056 | 64 | 111 | 0.0 | 4.0 | 0.00 | 0.00 | 0.00 | 65 | 1019.2 |
| 20260510194602 | 64 | 267 | 1.0 | 4.0 | 0.00 | 0.00 | 0.00 | 66 | 1019.4 |
| 20260510194057 | 64 | 72 | 1.0 | 4.0 | 0.00 | 0.00 | 0.00 | 67 | 1019.4 |
| 20260510193556 | 64 | 44 | 1.0 | 4.0 | 0.00 | 0.00 | 0.00 | 69 | 1019.4 |
| 20260510193100 | 63 | 113 | 2.0 | 4.0 | 0.00 | 0.00 | 0.00 | 70 | 1019.3 |
| 20260510192557 | 62 | 46 | 1.0 | 4.0 | 0.00 | 0.00 | 0.00 | 70 | 1019.2 |
| 20260510192053 | 63 | 46 | 1.0 | 5.0 | 0.00 | 0.00 | 0.00 | 70 | 1019.3 |
| 20260510191557 | 63 | 55 | 2.0 | 6.0 | 0.00 | 0.00 | 0.00 | 69 | 1019.3 |
| 20260510191058 | 63 | 157 | 1.0 | 7.0 | 0.00 | 0.00 | 0.00 | 67 | 1019.4 |
| 20260510190555 | 63 | 12 | 2.0 | 7.0 | 0.00 | 0.00 | 0.00 | 69 | 1019.5 |
| 20260510190110 | 64 | 33 | 0.0 | 7.0 | 0.00 | 0.00 | 0.00 | 68 | 1019.4 |
| 20260510185557 | 63 | 97 | 2.0 | 7.0 | 0.00 | 0.00 | 0.00 | 70 | 1019.2 |
| 20260510185059 | 62 | 36 | 1.0 | 8.0 | 0.00 | 0.00 | 0.00 | 70 | 1019.2 |
| 20260510184557 | 63 | 249 | 2.0 | 8.0 | 0.00 | 0.00 | 0.00 | 71 | 1019.2 |
| 20260510184057 | 63 | 92 | 3.0 | 8.0 | 0.00 | 0.00 | 0.00 | 69 | 1019.1 |
| 20260510183557 | 63 | 123 | 2.0 | 6.0 | 0.00 | 0.00 | 0.00 | 70 | 1019.1 |
| 20260510183057 | 61 | 0 | 2.0 | 6.0 | 0.00 | 0.00 | 0.00 | 71 | 1019.0 |
| 20260510182553 | 61 | 70 | 1.0 | 4.0 | 0.00 | 0.00 | 0.00 | 73 | 1019.1 |
| 20260510182057 | 61 | 0 | 1.0 | 4.0 | 0.00 | 0.00 | 0.00 | 73 | 1019.1 |
| 20260510181555 | 61 | 111 | 1.0 | 6.0 | 0.00 | 0.00 | 0.00 | 73 | 1019.1 |
| 20260510181058 | 60 | 0 | 1.0 | 6.0 | 0.00 | 0.00 | 0.00 | 76 | 1019.1 |
| 20260510180558 | 60 | 176 | 3.0 | 6.0 | 0.00 | 0.00 | 0.00 | 76 | 1019.2 |
| 20260510180107 | 60 | 131 | 1.0 | 7.0 | 0.00 | 0.00 | 0.00 | 76 | 1019.1 |
| 20260510175554 | 59 | 169 | 2.0 | 7.0 | 0.00 | 0.00 | 0.00 | 77 | 1019.1 |
| 20260510175054 | 59 | 248 | 2.0 | 7.0 | 0.00 | 0.00 | 0.00 | 77 | 1019.1 |
| 20260510174605 | 59 | 223 | 2.0 | 6.0 | 0.00 | 0.00 | 0.00 | 78 | 1019.1 |
| 20260510174133 | 58 | 0 | 2.0 | 6.0 | 0.00 | 0.00 | 0.00 | 79 | 1019.2 |
| 20260510173553 | 59 | 125 | 0.0 | 4.0 | 0.00 | 0.00 | 0.00 | 79 | 1019.2 |
| 20260510173056 | 58 | 0 | 0.0 | 4.0 | 0.00 | 0.00 | 0.00 | 79 | 1019.0 |
| 20260510172559 | 58 | 264 | 0.0 | 5.0 | 0.00 | 0.00 | 0.00 | 79 | 1018.9 |
| 20260510172055 | 58 | 219 | 1.0 | 5.0 | 0.00 | 0.00 | 0.00 | 79 | 1018.9 |
| 20260510171604 | 58 | 116 | 1.0 | 8.0 | 0.00 | 0.00 | 0.00 | 80 | 1018.9 |
| 20260510171059 | 57 | 144 | 1.0 | 8.0 | 0.00 | 0.00 | 0.00 | 80 | 1018.9 |
| 20260510170554 | 57 | 150 | 3.0 | 8.0 | 0.00 | 0.00 | 0.00 | 80 | 1018.7 |
| 20260510170059 | 57 | 123 | 1.0 | 4.0 | 0.00 | 0.00 | 0.00 | 80 | 1018.6 |
| 20260510165557 | 57 | 243 | 1.0 | 4.0 | 0.00 | 0.00 | 0.00 | 80 | 1018.5 |
| 20260510165057 | 58 | 205 | 1.0 | 4.0 | 0.00 | 0.00 | 0.00 | 80 | 1018.6 |
| 20260510164609 | 57 | 111 | 0.0 | 4.0 | 0.00 | 0.00 | 0.00 | 81 | 1018.6 |
| 20260510164057 | 57 | 106 | 1.0 | 6.0 | 0.00 | 0.00 | 0.00 | 82 | 1018.7 |
| 20260510163554 | 56 | 138 | 0.0 | 6.0 | 0.00 | 0.00 | 0.00 | 81 | 1018.7 |
| 20260510163157 | 56 | 115 | 1.0 | 5.0 | 0.00 | 0.00 | 0.00 | 81 | 1018.6 |
| 20260510162556 | 57 | 173 | 1.0 | 4.0 | 0.00 | 0.00 | 0.00 | 81 | 1018.7 |
| 20260510162053 | 56 | 140 | 0.0 | 5.0 | 0.00 | 0.00 | 0.00 | 81 | 1018.5 |
| 20260510161556 | 56 | 140 | 1.0 | 5.0 | 0.00 | 0.00 | 0.00 | 81 | 1018.5 |
| 20260510161057 | 57 | 184 | 1.0 | 4.0 | 0.00 | 0.00 | 0.00 | 81 | 1018.6 |
| 20260510160557 | 56 | 0 | 2.0 | 5.0 | 0.00 | 0.00 | 0.00 | 82 | 1018.5 |
| 20260510155557 | 57 | 0 | 1.0 | 5.0 | 0.00 | 0.00 | 0.00 | 82 | 1018.6 |
| 20260510155057 | 56 | 159 | 1.0 | 5.0 | 0.00 | 0.00 | 0.00 | 82 | 1018.5 |
| 20260510154559 | 57 | 101 | 1.0 | 4.0 | 0.00 | 0.00 | 0.00 | 80 | 1018.4 |
| 20260510154055 | 57 | 128 | 1.0 | 4.0 | 0.00 | 0.00 | 0.00 | 80 | 1018.4 |
| 20260510153554 | 56 | 0 | 0.0 | 4.0 | 0.00 | 0.00 | 0.00 | 82 | 1018.3 |
| 20260510153104 | 55 | 0 | 0.0 | 4.0 | 0.00 | 0.00 | 0.00 | 81 | 1018.3 |
| 20260510152559 | 56 | 79 | 1.0 | 3.0 | 0.00 | 0.00 | 0.00 | 81 | 1018.2 |
| 20260510152057 | 55 | 40 | 0.0 | 2.0 | 0.00 | 0.00 | 0.00 | 81 | 1018.2 |
| 20260510151628 | 56 | 0 | 0.0 | 4.0 | 0.00 | 0.00 | 0.00 | 81 | 1018.1 |
| 20260510151058 | 55 | 0 | 0.0 | 4.0 | 0.00 | 0.00 | 0.00 | 82 | 1018.0 |
| 20260510150557 | 55 | 41 | 1.0 | 3.0 | 0.00 | 0.00 | 0.00 | 82 | 1018.2 |
| 20260510145556 | 55 | 194 | 0.0 | 2.0 | 0.00 | 0.00 | 0.00 | 86 | 1018.2 |
| 20260510145056 | 54 | 0 | 0.0 | 2.0 | 0.00 | 0.00 | 0.00 | 87 | 1017.9 |
| 20260510144604 | 54 | 209 | 1.0 | 2.0 | 0.00 | 0.00 | 0.00 | 88 | 1017.8 |
| 20260510144058 | 54 | 209 | 0.0 | 2.0 | 0.00 | 0.00 | 0.00 | 88 | 1018.0 |
| 20260510143558 | 54 | 0 | 0.0 | 2.0 | 0.00 | 0.00 | 0.00 | 89 | 1018.0 |
| 20260510143108 | 54 | 0 | 0.0 | 2.0 | 0.00 | 0.00 | 0.00 | 89 | 1017.8 |
| 20260510142558 | 54 | 155 | 0.0 | 2.0 | 0.00 | 0.00 | 0.00 | 89 | 1017.5 |
| 20260510142057 | 54 | 155 | 0.0 | 2.0 | 0.00 | 0.00 | 0.00 | 89 | 1017.5 |
| 20260510141601 | 54 | 0 | 0.0 | 2.0 | 0.00 | 0.00 | 0.00 | 89 | 1017.5 |
| 20260510141054 | 53 | 155 | 0.0 | 3.0 | 0.00 | 0.00 | 0.00 | 89 | 1017.3 |
| 20260510140557 | 54 | 163 | 0.0 | 3.0 | 0.00 | 0.00 | 0.00 | 88 | 1017.3 |
| 20260510140056 | 54 | 102 | 0.0 | 2.0 | 0.00 | 0.00 | 0.00 | 89 | 1017.3 |
| 20260510135554 | 53 | 102 | 0.0 | 2.0 | 0.00 | 0.00 | 0.00 | 89 | 1017.5 |
| 20260510135057 | 53 | 0 | 0.0 | 2.0 | 0.00 | 0.00 | 0.00 | 89 | 1017.2 |
| 20260510134558 | 53 | 0 | 0.0 | 2.0 | 0.00 | 0.00 | 0.00 | 90 | 1017.1 |
| 20260510134057 | 53 | 0 | 0.0 | 2.0 | 0.00 | 0.00 | 0.00 | 90 | 1017.2 |
| 20260510133553 | 53 | 0 | 0.0 | 2.0 | 0.00 | 0.00 | 0.00 | 90 | 1017.3 |
| 20260510133054 | 53 | 0 | 0.0 | 1.0 | 0.00 | 0.00 | 0.00 | 90 | 1017.2 |
| 20260510132553 | 53 | 0 | 0.0 | 0.0 | 0.00 | 0.00 | 0.00 | 90 | 1017.0 |
| 20260510132058 | 53 | 0 | 0.0 | 3.0 | 0.00 | 0.00 | 0.00 | 90 | 1017.0 |
| 20260510131559 | 53 | 0 | 0.0 | 3.0 | 0.00 | 0.00 | 0.00 | 90 | 1017.0 |
| 20260510131054 | 53 | 102 | 0.0 | 3.0 | 0.00 | 0.00 | 0.00 | 90 | 1016.9 |
| 20260510130559 | 52 | 102 | 0.0 | 2.0 | 0.00 | 0.00 | 0.00 | 90 | 1017.0 |
| 20260510130056 | 53 | 44 | 0.0 | 2.0 | 0.00 | 0.00 | 0.00 | 89 | 1016.8 |
| 20260510125557 | 53 | 0 | 0.0 | 0.0 | 0.00 | 0.00 | 0.00 | 89 | 1017.2 |
| 20260510125101 | 53 | 0 | 0.0 | 0.0 | 0.00 | 0.00 | 0.00 | 88 | 1017.4 |
| 20260510124601 | 53 | 0 | 0.0 | 0.0 | 0.00 | 0.00 | 0.00 | 88 | 1017.4 |
| 20260510124057 | 53 | 0 | 0.0 | 2.0 | 0.00 | 0.00 | 0.00 | 88 | 1017.4 |
| 20260510123557 | 53 | 0 | 0.0 | 2.0 | 0.00 | 0.00 | 0.00 | 88 | 1017.3 |
| 20260510123056 | 53 | 0 | 0.0 | 2.0 | 0.00 | 0.00 | 0.00 | 88 | 1017.2 |
| 20260510122553 | 53 | 0 | 0.0 | 1.0 | 0.00 | 0.00 | 0.00 | 88 | 1017.1 |
| 20260510122053 | 53 | 0 | 0.0 | 1.0 | 0.00 | 0.00 | 0.00 | 88 | 1017.3 |
| 20260510121555 | 53 | 0 | 0.0 | 1.0 | 0.00 | 0.00 | 0.00 | 88 | 1017.2 |
| 20260510121055 | 53 | 0 | 0.0 | 0.0 | 0.00 | 0.00 | 0.00 | 88 | 1017.2 |
| 20260510120557 | 53 | 0 | 0.0 | 0.0 | 0.00 | 0.00 | 0.00 | 88 | 1017.3 |
| 20260510120054 | 53 | 0 | 0.0 | 1.0 | 0.00 | 0.00 | 0.00 | 88 | 1017.2 |
| 20260510115557 | 53 | 0 | 0.0 | 2.0 | 0.00 | 0.00 | 0.00 | 88 | 1017.2 |
| 20260510115054 | 54 | 0 | 0.0 | 2.0 | 0.00 | 0.00 | 0.00 | 87 | 1017.0 |
| 20260510114554 | 54 | 0 | 0.0 | 3.0 | 0.00 | 0.00 | 0.00 | 87 | 1017.0 |
| 20260510114057 | 54 | 44 | 1.0 | 3.0 | 0.00 | 0.00 | 0.00 | 88 | 1016.9 |
| 20260510113554 | 54 | 33 | 1.0 | 3.0 | 0.00 | 0.00 | 0.00 | 87 | 1016.8 |
| 20260510113056 | 54 | 0 | 0.0 | 0.0 | 0.00 | 0.00 | 0.00 | 87 | 1017.0 |
| 20260510112557 | 54 | 0 | 0.0 | 1.0 | 0.00 | 0.00 | 0.00 | 86 | 1017.1 |
| 20260510112057 | 54 | 0 | 0.0 | 1.0 | 0.00 | 0.00 | 0.00 | 87 | 1017.1 |
| 20260510111557 | 54 | 33 | 0.0 | 1.0 | 0.00 | 0.00 | 0.00 | 86 | 1016.9 |
| 20260510111053 | 54 | 0 | 0.0 | 1.0 | 0.00 | 0.00 | 0.00 | 86 | 1016.7 |
| 20260510110553 | 55 | 0 | 0.0 | 0.0 | 0.00 | 0.00 | 0.00 | 85 | 1016.6 |
| 20260510110055 | 55 | 0 | 0.0 | 0.0 | 0.00 | 0.00 | 0.00 | 85 | 1016.7 |
| 20260510105554 | 55 | 0 | 0.0 | 1.0 | 0.00 | 0.00 | 0.00 | 85 | 1016.7 |
| 20260510105105 | 55 | 0 | 0.0 | 1.0 | 0.00 | 0.00 | 0.00 | 85 | 1016.6 |
| 20260510104555 | 55 | 0 | 0.0 | 1.0 | 0.00 | 0.00 | 0.00 | 84 | 1016.5 |
| 20260510104057 | 55 | 0 | 0.0 | 1.0 | 0.00 | 0.00 | 0.00 | 84 | 1016.5 |
| 20260510103557 | 55 | 33 | 0.0 | 1.0 | 0.00 | 0.00 | 0.00 | 84 | 1016.4 |
| 20260510103057 | 55 | 0 | 0.0 | 1.0 | 0.00 | 0.00 | 0.00 | 83 | 1016.2 |
| 20260510102557 | 56 | 0 | 0.0 | 1.0 | 0.00 | 0.00 | 0.00 | 83 | 1016.2 |
| 20260510102057 | 56 | 0 | 0.0 | 0.0 | 0.00 | 0.00 | 0.00 | 81 | 1016.1 |
| 20260510101555 | 56 | 0 | 0.0 | 0.0 | 0.00 | 0.00 | 0.00 | 81 | 1016.1 |
| 20260510101057 | 56 | 0 | 0.0 | 1.0 | 0.00 | 0.00 | 0.00 | 81 | 1015.9 |
| 20260510100557 | 57 | 0 | 0.0 | 1.0 | 0.00 | 0.00 | 0.00 | 80 | 1015.7 |
| 20260510100115 | 57 | 0 | 0.0 | 1.0 | 0.00 | 0.00 | 0.00 | 80 | 1015.6 |
| 20260510095556 | 57 | 0 | 0.0 | 2.0 | 0.00 | 0.00 | 0.00 | 79 | 1015.6 |
| 20260510095059 | 57 | 0 | 0.0 | 2.0 | 0.00 | 0.00 | 0.00 | 79 | 1015.6 |
| 20260510094602 | 58 | 0 | 0.0 | 1.0 | 0.00 | 0.00 | 0.00 | 78 | 1015.5 |
| 20260510094100 | 58 | 0 | 0.0 | 2.0 | 0.00 | 0.00 | 0.00 | 78 | 1015.6 |
| 20260510093557 | 58 | 0 | 0.0 | 2.0 | 0.00 | 0.00 | 0.00 | 77 | 1015.7 |
| 20260510093102 | 58 | 0 | 0.0 | 1.0 | 0.00 | 0.00 | 0.00 | 77 | 1015.8 |
| 20260510092557 | 58 | 0 | 0.0 | 0.0 | 0.00 | 0.00 | 0.00 | 77 | 1015.8 |
| 20260510092057 | 58 | 0 | 0.0 | 1.0 | 0.00 | 0.00 | 0.00 | 77 | 1015.8 |
| 20260510091556 | 58 | 0 | 0.0 | 1.0 | 0.00 | 0.00 | 0.00 | 77 | 1015.8 |
| 20260510091057 | 58 | 0 | 0.0 | 1.0 | 0.00 | 0.00 | 0.00 | 77 | 1015.8 |
| 20260510090559 | 57 | 0 | 0.0 | 0.0 | 0.00 | 0.00 | 0.00 | 77 | 1015.7 |
| 20260510085557 | 57 | 0 | 0.0 | 0.0 | 0.00 | 0.00 | 0.00 | 76 | 1015.5 |
| 20260510085056 | 57 | 0 | 0.0 | 0.0 | 0.00 | 0.00 | 0.00 | 76 | 1015.5 |
| 20260510084611 | 58 | 0 | 0.0 | 0.0 | 0.00 | 0.00 | 0.00 | 75 | 1015.5 |
| 20260510084054 | 58 | 0 | 0.0 | 0.0 | 0.00 | 0.00 | 0.00 | 74 | 1015.3 |
| 20260510083558 | 59 | 0 | 0.0 | 0.0 | 0.00 | 0.00 | 0.00 | 73 | 1015.4 |
| 20260510083056 | 59 | 0 | 0.0 | 0.0 | 0.00 | 0.00 | 0.00 | 72 | 1015.3 |
| 20260510082557 | 59 | 0 | 0.0 | 0.0 | 0.00 | 0.00 | 0.00 | 73 | 1015.4 |
| 20260510082057 | 59 | 0 | 0.0 | 0.0 | 0.00 | 0.00 | 0.00 | 73 | 1015.4 |
| 20260510081600 | 59 | 0 | 0.0 | 0.0 | 0.00 | 0.00 | 0.00 | 73 | 1015.3 |
| 20260510081057 | 60 | 0 | 0.0 | 0.0 | 0.00 | 0.00 | 0.00 | 71 | 1015.3 |
| 20260510080559 | 60 | 0 | 0.0 | 0.0 | 0.00 | 0.00 | 0.00 | 70 | 1015.4 |
| 20260510080058 | 61 | 0 | 0.0 | 0.0 | 0.00 | 0.00 | 0.00 | 69 | 1015.4 |
| 20260510075557 | 60 | 0 | 0.0 | 0.0 | 0.00 | 0.00 | 0.00 | 69 | 1015.4 |
| 20260510075057 | 61 | 0 | 0.0 | 0.0 | 0.00 | 0.00 | 0.00 | 69 | 1015.4 |
| 20260510074600 | 61 | 0 | 0.0 | 0.0 | 0.00 | 0.00 | 0.00 | 68 | 1015.4 |
| 20260510074058 | 61 | 0 | 0.0 | 0.0 | 0.00 | 0.00 | 0.00 | 68 | 1015.4 |
| 20260510073556 | 61 | 0 | 0.0 | 0.0 | 0.00 | 0.00 | 0.00 | 68 | 1015.5 |
| 20260510073105 | 61 | 0 | 0.0 | 0.0 | 0.00 | 0.00 | 0.00 | 68 | 1015.4 |
| 20260510072557 | 61 | 0 | 0.0 | 0.0 | 0.00 | 0.00 | 0.00 | 68 | 1015.4 |
| 20260510072059 | 61 | 0 | 0.0 | 0.0 | 0.00 | 0.00 | 0.00 | 68 | 1015.4 |
| 20260510071556 | 62 | 0 | 0.0 | 0.0 | 0.00 | 0.00 | 0.00 | 67 | 1015.3 |
| 20260510071054 | 62 | 0 | 0.0 | 0.0 | 0.00 | 0.00 | 0.00 | 67 | 1015.4 |
| 20260510070557 | 62 | 0 | 0.0 | 0.0 | 0.00 | 0.00 | 0.00 | 66 | 1015.4 |
| 20260510070058 | 62 | 0 | 0.0 | 0.0 | 0.00 | 0.00 | 0.00 | 66 | 1015.4 |
| 20260510065554 | 62 | 0 | 0.0 | 0.0 | 0.00 | 0.00 | 0.00 | 66 | 1015.4 |
| 20260510065055 | 62 | 0 | 0.0 | 0.0 | 0.00 | 0.00 | 0.00 | 67 | 1015.3 |
| 20260510064556 | 62 | 0 | 0.0 | 1.0 | 0.00 | 0.00 | 0.00 | 66 | 1015.3 |
| 20260510064057 | 63 | 0 | 0.0 | 2.0 | 0.00 | 0.00 | 0.00 | 65 | 1015.3 |
| 20260510063557 | 63 | 0 | 0.0 | 2.0 | 0.00 | 0.00 | 0.00 | 65 | 1015.1 |
| 20260510063056 | 63 | 0 | 0.0 | 3.0 | 0.00 | 0.00 | 0.00 | 64 | 1015.2 |
| 20260510062554 | 63 | 0 | 0.0 | 3.0 | 0.00 | 0.00 | 0.00 | 64 | 1015.1 |
| 20260510062054 | 64 | 0 | 0.0 | 2.0 | 0.00 | 0.00 | 0.00 | 63 | 1015.1 |
| 20260510061557 | 64 | 0 | 0.0 | 2.0 | 0.00 | 0.00 | 0.00 | 63 | 1015.2 |
| 20260510061058 | 64 | 352 | 0.0 | 4.0 | 0.00 | 0.00 | 0.00 | 62 | 1015.1 |
| 20260510060558 | 64 | 0 | 0.0 | 4.0 | 0.00 | 0.00 | 0.00 | 62 | 1015.1 |
| 20260510060056 | 64 | 5 | 0.0 | 1.0 | 0.00 | 0.00 | 0.00 | 62 | 1015.2 |
| 20260510055554 | 65 | 0 | 0.0 | 2.0 | 0.00 | 0.00 | 0.00 | 62 | 1015.2 |
| 20260510055059 | 65 | 0 | 0.0 | 4.0 | 0.00 | 0.00 | 0.00 | 62 | 1015.2 |
| 20260510054555 | 65 | 0 | 0.0 | 4.0 | 0.00 | 0.00 | 0.00 | 61 | 1015.1 |
| 20260510054057 | 65 | 5 | 0.0 | 3.0 | 0.00 | 0.00 | 0.00 | 61 | 1015.0 |
| 20260510053559 | 65 | 0 | 0.0 | 3.0 | 0.00 | 0.00 | 0.00 | 61 | 1015.0 |
| 20260510053102 | 65 | 15 | 0.0 | 2.0 | 0.00 | 0.00 | 0.00 | 60 | 1015.0 |
| 20260510052555 | 66 | 0 | 0.0 | 2.0 | 0.00 | 0.00 | 0.00 | 61 | 1015.0 |
| 20260510052058 | 66 | 300 | 0.0 | 4.0 | 0.00 | 0.00 | 0.00 | 61 | 1015.0 |
| 20260510051554 | 66 | 0 | 0.0 | 4.0 | 0.00 | 0.00 | 0.00 | 60 | 1015.0 |
| 20260510051055 | 66 | 284 | 0.0 | 3.0 | 0.00 | 0.00 | 0.00 | 60 | 1015.0 |
| 20260510050554 | 66 | 0 | 0.0 | 3.0 | 0.00 | 0.00 | 0.00 | 60 | 1015.1 |
| 20260510050056 | 66 | 0 | 0.0 | 3.0 | 0.00 | 0.00 | 0.00 | 60 | 1015.0 |
| 20260510045558 | 67 | 317 | 0.0 | 3.0 | 0.00 | 0.00 | 0.00 | 59 | 1015.1 |
| 20260510045055 | 67 | 0 | 0.0 | 4.0 | 0.00 | 0.00 | 0.00 | 59 | 1015.0 |
| 20260510044559 | 67 | 292 | 0.0 | 4.0 | 0.00 | 0.00 | 0.00 | 58 | 1015.0 |
| 20260510044056 | 67 | 303 | 0.0 | 3.0 | 0.00 | 0.00 | 0.00 | 58 | 1014.9 |
| 20260510043556 | 67 | 0 | 0.0 | 2.0 | 0.00 | 0.00 | 0.00 | 57 | 1014.9 |
| 20260510043108 | 67 | 0 | 0.0 | 3.0 | 0.00 | 0.00 | 0.00 | 57 | 1014.9 |
| 20260510042555 | 67 | 305 | 0.0 | 4.0 | 0.00 | 0.00 | 0.00 | 57 | 1014.9 |
| 20260510042100 | 67 | 0 | 0.0 | 4.0 | 0.00 | 0.00 | 0.00 | 57 | 1014.7 |
| 20260510041558 | 68 | 280 | 0.0 | 2.0 | 0.00 | 0.00 | 0.00 | 56 | 1014.7 |
| 20260510041055 | 68 | 0 | 0.0 | 2.0 | 0.00 | 0.00 | 0.00 | 55 | 1014.5 |
| 20260510040555 | 68 | 350 | 0.0 | 2.0 | 0.00 | 0.00 | 0.00 | 55 | 1014.5 |
| 20260510035556 | 68 | 5 | 0.0 | 3.0 | 0.00 | 0.00 | 0.00 | 53 | 1014.3 |
| 20260510035055 | 68 | 5 | 0.0 | 2.0 | 0.00 | 0.00 | 0.00 | 53 | 1014.3 |
| 20260510034559 | 69 | 0 | 0.0 | 3.0 | 0.00 | 0.00 | 0.00 | 52 | 1014.3 |
| 20260510034055 | 69 | 0 | 0.0 | 3.0 | 0.00 | 0.00 | 0.00 | 52 | 1014.3 |
| 20260510033554 | 69 | 0 | 0.0 | 4.0 | 0.00 | 0.00 | 0.00 | 52 | 1014.2 |
| 20260510033133 | 69 | 0 | 0.0 | 4.0 | 0.00 | 0.00 | 0.00 | 51 | 1014.2 |
| 20260510032554 | 69 | 347 | 0.0 | 5.0 | 0.00 | 0.00 | 0.00 | 51 | 1014.2 |
| 20260510032054 | 69 | 0 | 1.0 | 5.0 | 0.00 | 0.00 | 0.00 | 52 | 1014.2 |
| 20260510031622 | 70 | 0 | 0.0 | 4.0 | 0.00 | 0.00 | 0.00 | 51 | 1014.2 |
| 20260510031054 | 70 | 0 | 0.0 | 4.0 | 0.00 | 0.00 | 0.00 | 51 | 1014.2 |
| 20260510030558 | 70 | 5 | 0.0 | 4.0 | 0.00 | 0.00 | 0.00 | 49 | 1014.2 |
| 20260510025557 | 71 | 5 | 1.0 | 6.0 | 0.00 | 0.00 | 0.00 | 48 | 1014.1 |
| 20260510025055 | 71 | 10 | 1.0 | 4.0 | 0.00 | 0.00 | 0.00 | 46 | 1014.1 |
| 20260510024556 | 72 | 0 | 1.0 | 4.0 | 0.00 | 0.00 | 0.00 | 45 | 1014.0 |
| 20260510024056 | 72 | 360 | 2.0 | 5.0 | 0.00 | 0.00 | 0.00 | 45 | 1014.1 |
| 20260510023554 | 72 | 319 | 1.0 | 5.0 | 0.00 | 0.00 | 0.00 | 44 | 1014.0 |
| 20260510023056 | 73 | 5 | 0.0 | 3.0 | 0.00 | 0.00 | 0.00 | 43 | 1014.1 |
| 20260510022558 | 73 | 0 | 1.0 | 5.0 | 0.00 | 0.00 | 0.00 | 43 | 1014.1 |
| 20260510022101 | 73 | 0 | 0.0 | 5.0 | 0.00 | 0.00 | 0.00 | 41 | 1014.1 |
| 20260510021600 | 73 | 344 | 1.0 | 4.0 | 0.00 | 0.00 | 0.00 | 41 | 1014.2 |
| 20260510021057 | 74 | 14 | 1.0 | 4.0 | 0.00 | 0.00 | 0.00 | 41 | 1014.1 |
| 20260510020554 | 74 | 11 | 0.0 | 4.0 | 0.00 | 0.00 | 0.00 | 42 | 1014.2 |
| 20260510020058 | 74 | 5 | 0.0 | 4.0 | 0.00 | 0.00 | 0.00 | 42 | 1014.2 |
| 20260510015558 | 74 | 301 | 0.0 | 4.0 | 0.00 | 0.00 | 0.00 | 41 | 1014.1 |
| 20260510015056 | 75 | 0 | 0.0 | 5.0 | 0.00 | 0.00 | 0.00 | 41 | 1014.2 |
| 20260510014555 | 75 | 0 | 1.0 | 6.0 | 0.00 | 0.00 | 0.00 | 41 | 1014.2 |
| 20260510014057 | 75 | 0 | 2.0 | 7.0 | 0.00 | 0.00 | 0.00 | 41 | 1014.3 |
| 20260510013554 | 75 | 16 | 2.0 | 7.0 | 0.00 | 0.00 | 0.00 | 40 | 1014.4 |
| 20260510013057 | 76 | 321 | 1.0 | 4.0 | 0.00 | 0.00 | 0.00 | 39 | 1014.5 |
| 20260510012558 | 76 | 0 | 1.0 | 5.0 | 0.00 | 0.00 | 0.00 | 38 | 1014.4 |
| 20260510012055 | 76 | 49 | 1.0 | 5.0 | 0.00 | 0.00 | 0.00 | 36 | 1014.4 |
| 20260510011602 | 77 | 352 | 1.0 | 6.0 | 0.00 | 0.00 | 0.00 | 33 | 1014.6 |
| 20260510011054 | 78 | 0 | 0.0 | 6.0 | 0.00 | 0.00 | 0.00 | 31 | 1014.5 |
| 20260510010553 | 78 | 323 | 1.0 | 3.0 | 0.00 | 0.00 | 0.00 | 30 | 1014.5 |
| 20260510010107 | 78 | 0 | 0.0 | 2.0 | 0.00 | 0.00 | 0.00 | 31 | 1014.5 |
| 20260510005553 | 77 | 0 | 1.0 | 4.0 | 0.00 | 0.00 | 0.00 | 31 | 1014.4 |
| 20260510005058 | 78 | 293 | 0.0 | 4.0 | 0.00 | 0.00 | 0.00 | 32 | 1014.6 |
| 20260510004601 | 78 | 13 | 1.0 | 5.0 | 0.00 | 0.00 | 0.00 | 31 | 1014.6 |
| 20260510004057 | 79 | 5 | 1.0 | 5.0 | 0.00 | 0.00 | 0.00 | 31 | 1014.7 |
| 20260510003557 | 79 | 309 | 0.0 | 5.0 | 0.00 | 0.00 | 0.00 | 32 | 1014.6 |
| 20260510003056 | 79 | 286 | 1.0 | 6.0 | 0.00 | 0.00 | 0.00 | 32 | 1014.6 |
| 20260510002557 | 79 | 346 | 1.0 | 7.0 | 0.00 | 0.00 | 0.00 | 31 | 1014.6 |
| 20260510002055 | 80 | 45 | 2.0 | 7.0 | 0.00 | 0.00 | 0.00 | 28 | 1014.6 |
| 20260510001556 | 80 | 5 | 1.0 | 5.0 | 0.00 | 0.00 | 0.00 | 30 | 1014.6 |
| 20260510001055 | 79 | 0 | 1.0 | 5.0 | 0.00 | 0.00 | 0.00 | 28 | 1014.6 |
| 20260510000556 | 79 | 348 | 1.0 | 5.0 | 0.00 | 0.00 | 0.00 | 29 | 1014.8 |
| 20260510000107 | 80 | 51 | 1.0 | 6.0 | 0.00 | 0.00 | 0.00 | 28 | 1014.7 |
| 20260509235554 | 80 | 333 | 3.0 | 6.0 | 0.00 | 0.00 | 0.00 | 31 | 1014.8 |
| 20260509235056 | 79 | 0 | 1.0 | 5.0 | 0.00 | 0.00 | 0.00 | 27 | 1014.9 |
| 20260509234601 | 80 | 57 | 1.0 | 5.0 | 0.00 | 0.00 | 0.00 | 28 | 1014.9 |
| 20260509234058 | 79 | 0 | 0.0 | 5.0 | 0.00 | 0.00 | 0.00 | 28 | 1015.0 |
| 20260509233558 | 79 | 314 | 2.0 | 5.0 | 0.00 | 0.00 | 0.00 | 29 | 1014.8 |
| 20260509233057 | 79 | 36 | 1.0 | 6.0 | 0.00 | 0.00 | 0.00 | 27 | 1014.9 |
| 20260509232557 | 78 | 25 | 1.0 | 8.0 | 0.00 | 0.00 | 0.00 | 28 | 1015.0 |
| 20260509232058 | 78 | 87 | 3.0 | 8.0 | 0.00 | 0.00 | 0.00 | 26 | 1014.9 |
| 20260509231555 | 79 | 34 | 2.0 | 8.0 | 0.00 | 0.00 | 0.00 | 27 | 1015.0 |
| 20260509231055 | 78 | 47 | 3.0 | 8.0 | 0.00 | 0.00 | 0.00 | 27 | 1015.1 |
| 20260509230557 | 78 | 352 | 2.0 | 7.0 | 0.00 | 0.00 | 0.00 | 28 | 1015.2 |
| 20260509230057 | 78 | 49 | 3.0 | 6.0 | 0.00 | 0.00 | 0.00 | 27 | 1015.3 |
| 20260509225555 | 78 | 51 | 2.0 | 5.0 | 0.00 | 0.00 | 0.00 | 28 | 1015.5 |
| 20260509225054 | 78 | 5 | 2.0 | 6.0 | 0.00 | 0.00 | 0.00 | 29 | 1015.7 |
| 20260509224554 | 78 | 73 | 2.0 | 8.0 | 0.00 | 0.00 | 0.00 | 30 | 1015.7 |
| 20260509224059 | 78 | 0 | 2.0 | 8.0 | 0.00 | 0.00 | 0.00 | 30 | 1015.8 |
| 20260509223555 | 78 | 58 | 2.0 | 7.0 | 0.00 | 0.00 | 0.00 | 31 | 1015.9 |